Find OneWeb SL0210

NORAD ID: 48787 Int'l Des: 2021-045 Owner: ONEWEBN Country: UK Constellation: oneweb operational
LEOCIRCULARPOLARONEWEB_TYPE

現在のビュー

3D地球を読み込み中...

About OneWeb SL0210

OneWeb SL0210 (NORAD 48787) is a oneweb constellation satellite launched May 28, 2021 by ONEWEBN of UK. It operates in LEO, CIRCULAR, POLAR, ONEWEB_TYPE orbit with a mass of 148.00 kg.

OneWeb SL0210について

説明を読み込み中...

次回通過

Passes for default location (London). Set your location on the main map for personalized predictions.

高度履歴

Loading altitude history...

軌道要素

1 48787U 21045W 26171.27040051 -.00000082 00000-0 -25060-3 0 9990
2 48787 87.9012 258.5707 0001151 97.7164 262.4097 13.15546910244723
Epoch: Jun 20, 2026 • Age: 43 hours

現在のステータス

高度 1227.3 km
速度 7.24 km/s
衛星直下点 -64.53°S, 46.02°W
打ち上げ日 May 28, 2021
運用期間 5 years
タイプ internet

技術仕様

分類 Payload
質量 148.00 kg
乾燥質量 140.00 kg
総質量 148.00 kg
長さ 1.30 m
直径 1.00 m
スパン 5.00 m
形状 Trapezoid+2 pan
製造者 ONEWUS
バスタイプ ARROW
フェーズステータス In Orbit
所有者/国 ONEWEBN/UK

Most Searched